Regional Weather Roundup
Issued by NWS

Home | Current Version | Previous Version | Graphics & Text | Print | Product List | Glossary On
Versions: 1 2 3 4 5 6 7 8 9 10 11 12 13 14 15 16 17 18 19 20 21 22 23 24 25 26 27 28 29 30 31 32 33 34 35 36 37 38 39 40 41 42 43 44 45 46 47 48 49 50
000
ASUS43 KBIS 271010
RWRND

NORTH DAKOTA REGIONAL WEATHER ROUNDUP
NATIONAL WEATHER SERVICE BISMARCK ND
500 AM CDT WED JUL 27 2016

NOTE: "FAIR" INDICATES FEW OR NO CLOUDS BELOW 12,000 FEET WITH NO
SIGNIFICANT WEATHER AND/OR OBSTRUCTIONS TO VISIBILITY.


NDZ001>003-009>011-017-271100-
NORTHWEST NORTH DAKOTA

CITY           SKY/WX    TMP DP  RH WIND       PRES   REMARKS
WILLISTON      CLOUDY    59  53  80 NW7       30.12R
MINOT          CLEAR     61  58  90 N6        30.09F
MINOT AFB      CLEAR     60  56  85 E3        30.09R
$$

NDZ018>021-031>035-040>046-271100-
SOUTHWEST NORTH DAKOTA

CITY           SKY/WX    TMP DP  RH WIND       PRES   REMARKS
BISMARCK       CLEAR     62  60  93 N7        30.07S
DICKINSON      CLOUDY    54  53  97 CALM      30.08S
GARRISON         N/A     59  58  96 N3        30.08F
HETTINGER ARPT CLEAR     54  52  93 W3        30.11R
$$

NDZ004>008-012>016-024-026-027-054-271100-
NORTHEAST NORTH DAKOTA

CITY           SKY/WX    TMP DP  RH WIND       PRES   REMARKS
GRAND FORKS    CLOUDY    64  60  87 N7        30.04R
GRND FRKS AFB  CLOUDY    64  60  89 N9        30.05R
DEVILS LAKE    CLOUDY    61  58  90 NE8       30.10R
$$

NDZ022-023-025-028>030-036>039-047>053-271100-
SOUTHEAST NORTH DAKOTA

CITY           SKY/WX    TMP DP  RH WIND       PRES   REMARKS
FARGO          LGT RAIN  68  65  90 NW8       29.99F
JAMESTOWN      PTCLDY    61  60  97 NW7       30.04R
$$





USA.gov is the U.S. government's official web portal to all federal, state and local government web resources and services.